Home   Weather   Fargo   Past weeks

Flag for USA Past Weather in Fargo, North Dakota, USA — Yesterday and Last 2 Weeks

Now
40 °F

Clear.


Feels Like: 33 °F
Forecast: 44 / 62 °F
Wind: 10 mph from West

Location: Hector International Airport

Current Time: Sep 27, 2016 at 7:18:41 AM

Latest Report: Sep 27, 2016 at 6:53 AM


Visibility: 10 mi

Pressure: 29.93 "Hg

Humidity: 83%

Dew Point: 35 °F

Location of FargoLocation

Past Weather in Fargo — Graph

°F

Fargo Temperature Yesterday

Maximum temperature yesterday: 67 °F (at 4:53 PM)
Minimum temperature yesterday: 47 °F (at 6:53 AM)
Average temperature yesterday: 56 °F

High & Low Weather Summary for the Past Weeks

 TemperatureHumidityPressure
High79 °F (Sep 24, 12:53 PM)93% (Sep 14, 6:53 AM)30.33 "Hg (Sep 14, 6:53 AM)
Low37 °F (Sep 14, 6:53 AM)22% (Sep 19, 3:53 PM)29.60 "Hg (Sep 18, 3:53 PM)
Average61 °F67%29.96 "Hg
* Reported Sep 12 5:53 AM — Sep 27 5:53 AM, Fargo, Weather by CustomWeather, © 2016

Note: Actual official high and low records may vary slightly from our data, if they occured in-between our weather recording intervals... More about our weather records

Advertising

Fargo Weather History for the Previous 24 Hours

Scroll right to see more
 ConditionsComfort  
Time TempWeatherWind HumidityBarometerVisibility
5:53 AM
Tue, Sep 27
40 °FClear.8 mph83%29.93 "Hg10 mi
4:53 AM39 °FClear.6 mph79%29.94 "Hg10 mi
3:53 AM40 °FClear.5 mph77%29.94 "Hg10 mi
2:53 AM39 °FClear.8 mph79%29.94 "Hg10 mi
1:53 AM41 °FClear.7 mph76%29.95 "Hg10 mi
12:53 AM43 °FClear.5 mph71%29.95 "Hg10 mi
11:53 PM
Mon, Sep 26
47 °FClear.8 mph61%29.95 "Hg10 mi
10:53 PM48 °FClear.8 mph56%29.95 "Hg10 mi
9:53 PM54 °FClear.13 mph41%29.95 "Hg10 mi
8:53 PM52 °FClear.9 mph45%29.96 "Hg10 mi
7:53 PM57 °FClear.8 mph34%29.95 "Hg10 mi
6:53 PM63 °FSunny.16 mph25%29.94 "Hg10 mi
5:53 PM66 °FSunny.29 mph24%29.94 "Hg10 mi
4:53 PM67 °FSunny.29 mph26%29.93 "Hg10 mi
3:53 PM66 °FSunny.30 mph29%29.94 "Hg10 mi
2:53 PM66 °FSunny.26 mph29%29.93 "Hg10 mi
1:53 PM65 °FSunny.29 mph28%29.95 "Hg10 mi
12:53 PM65 °FSunny.26 mph31%29.96 "Hg10 mi
11:53 AM62 °FSunny.25 mph37%29.97 "Hg10 mi
10:53 AM60 °FSunny.21 mph44%29.98 "Hg10 mi
9:53 AM57 °FSunny.20 mph49%29.99 "Hg10 mi
8:53 AM53 °FSunny.20 mph55%30.00 "Hg10 mi
7:53 AM48 °FSunny.15 mph66%30.00 "Hg10 mi
Weather by CustomWeather, © 2016

See weather overviewHow to use our weather pages